Regional Weather Roundup
Issued by NWS

Home | Current Version | Previous Version | Text Only | Print | Product List | Glossary Off
Versions: 1 2 3 4 5 6 7 8 9 10 11 12 13 14 15 16 17 18 19 20 21 22 23 24 25 26 27 28 29 30 31 32 33 34 35 36 37 38 39 40 41 42 43 44 45 46 47 48 49 50

621
ASUS44 KLIX 202205
RWRLA
LOUISIANA WEATHER ROUNDUP
NATIONAL WEATHER SERVICE NEW ORLEANS LA
400 PM CST THU NOV 20 2014

NOTE: "FAIR" INDICATES FEW OR NO CLOUDS BELOW 12,000 FEET WITH NO
      SIGNIFICANT WEATHER AND/OR OBSTRUCTIONS TO VISIBILITY.
      SKY/WX - SKY CONDITION AND SIGNIFICANT WEATHER.
      TMP - AIR TEMPERATURE.    DP   - DEWPOINT TEMPERATURE.
      RH  - RELATIVE HUMIDITY.  PRES - PRESSURE.
      HX  - HEAT INDEX.         WCI  - WIND CHILL INDEX.

*  THESE STATIONS ARE NOT NWS OR FAA STATIONS AND ARE NOT UNDER
   NWS QUALITY CONTROL.

LAZ040-048-061>063-065-066-069-202300-
SOUTHEAST LOUISIANA

CITY           SKY/WX    TMP DP  RH WIND       PRES   REMARKS
N.O. AUDUBON     N/A     67  47  49 MISG        N/A
N.O. INTL ARPT MOSUNNY   66  46  48 S13       30.20S
N.O. LAKEFRONT CLOUDY    66  44  45 SE10      30.22R
N.O. DOWNTOWN* FAIR      66  43  42 S8        30.21S
SLIDELL        MOSUNNY   65  43  44 S9        30.21R
BATON ROUGE    CLOUDY    68  45  43 S7        30.17S
BOOTHVILLE     SUNNY     65  45  48 E6        30.23R
BELLE CHASSE   MOSUNNY   67  42  40 S10       30.21R
BOGALUSA*        N/A     68  43  39 SW5       30.21R
NEW ROADS*     FAIR      69  47  44 S5        30.17S
GONZALES*      CLOUDY    67  48  51 S3        30.18S
HAMMOND*       CLOUDY    66  43  42 SE8       30.21R
HOUMA*         MOSUNNY   66  46  48 SE12      30.20S
PORT FOURCHON* CLEAR     64  46  52 SE9       30.25R

$$

LAZ041-044-053-054-202300-
SOUTHWEST LOUISIANA

CITY           SKY/WX    TMP DP  RH WIND       PRES   REMARKS
LAKE CHARLES   MOSUNNY   69  52  54 SE16      30.12S
LAFAYETTE      SUNNY     67  48  50 S9        30.16F
PATTERSON      SUNNY     68  48  49 SE6       30.20
SALT POINT       N/A     64  52  64 VRB5      30.17F
NEW IBERIA     SUNNY     67  48  50 S13       30.18S
CHENAULT AIRPK   N/A     70  54  56 SE15G23   30.13S

$$

LAZ027-028-202300-
CENTRAL LOUISIANA

CITY           SKY/WX    TMP DP  RH WIND       PRES   REMARKS
FORT POLK      MOSUNNY   67  52  57 SE10      30.11S
ALEXANDRIA INT MOSUNNY   69  50  50 SE10      30.11F
ALEXANDRIA     PTSUNNY   71  49  45 S7        30.13F

$$

LAZ001-002-202300-
NORTHWEST LOUISIANA

CITY           SKY/WX    TMP DP  RH WIND       PRES   REMARKS
SHREVEPORT     PTSUNNY   63  58  83 E5        30.10S
BARKSDALE AFB  MOSUNNY   61  57  86 E3        30.11S
DTN SHREVEPORT CLOUDY    61  56  83 E5        30.10F

$$

LAZ014-016-202300-
NORTHEAST LOUISIANA

CITY           SKY/WX    TMP DP  RH WIND       PRES   REMARKS
MONROE         CLOUDY    64  53  67 E7        30.15S
TALLULAH       CLOUDY    65  53  65 N3        30.16S

$$




USA.gov is the U.S. government's official web portal to all federal, state and local government web resources and services.